Location: Newark
(35.8833°N, 14.5000°E)
Time: 22:12:44
(UTC+00:00)

BEESAT - Pass Details

Date: 21 November 2019
Orbit: 700 x 709 km, 98.6° (Epoch: 06 December)

Event Time Altitude Azimuth Distance (km) Brightness Sun altitude
Rises 17:10:04 0° 2° (N) 3,095 ? -15.9°
Reaches altitude 10° 17:12:29 10° 354° (N) 2,174 ? -16.4°
Maximum altitude 17:16:46 35° 289° (WNW) 1,139 ? -17.2°
Drops below altitude 10° 17:21:03 10° 225° (SW) 2,166 ? -18.1°
Sets 17:23:27 0° 216° (SW) 3,082 ? -18.5°
